Notices

What's New in latest Release from April 7th, 2021:

- Updated Glossary, including Speed of Maximum Gust, and Total Hourly Precipitation

- Updated national and regional climate services offices contacts and prices information

- Addition of station inventory lists for 1981-2010, 1971-2000, and 1961-1990 Normals.

If you haven't already, please take our survey and provide feedback about our website: https://eccc.sondage-survey.ca/f/LanguageSelection.aspx?s=442ca660-fcf1-47c0-95a9-59707d6fd709

Hourly Data Report for January 25, 2017

TORONTO CITY
ONTARIO

43°40'00.000" N
79°24'00.000" W
112.50 m
6158355
71508
XTO

Download Data

Hourly Data (January 2017)
Hourly Data Report for January 25, 2017
TIME
LST
Temp Definition
°C
Dew Point Definition
°C
Rel Hum Definition
%
Precip. Amount Definition
mm

Wind Dir Definition
10's deg

Wind Spd Definition
km/h
Visibility Definition
km
Stn Press Definition
kPa
Hmdx Definition


Wind Chill Definition


Weather Definition


00:00 1.8 -3.0 71 0.0 LegendMM LegendMM   99.12     LegendNANA
01:00 1.6 -3.1 71 0.0 LegendMM LegendMM   99.13     LegendNANA
02:00 1.4 -3.3 71 0.0 LegendMM LegendMM   99.19     LegendNANA
03:00 1.4 -3.1 72 0.0 LegendMM LegendMM   99.20     LegendNANA
04:00 1.8 -2.5 73 0.0 LegendMM LegendMM   99.23     LegendNANA
05:00 1.7 -1.5 79 0.0 LegendMM LegendMM   99.23     LegendNANA
06:00 2.1 -0.3 84 0.0 LegendMM LegendMM   99.20     LegendNANA
07:00 2.3 0.1 85 0.0 LegendMM LegendMM   99.16     LegendNANA
08:00 2.4 0.3 86 0.0 LegendMM LegendMM   99.14     LegendNANA
09:00 3.1 0.3 82 0.0 LegendMM LegendMM   99.16     LegendNANA
10:00 4.0 0.4 78 0.0 LegendMM LegendMM   99.07     LegendNANA
11:00 4.5 0.6 76 0.0 LegendMM LegendMM   99.06     LegendNANA
12:00 5.1 0.9 75 0.0 LegendMM LegendMM   98.94     LegendNANA
13:00 5.1 0.8 74 0.0 LegendMM LegendMM   98.92     LegendNANA
14:00 4.8 1.3 78 0.0 LegendMM LegendMM   98.80     LegendNANA
15:00 4.7 1.4 79 0.0 LegendMM LegendMM   98.69     LegendNANA
16:00 4.7 1.3 79 0.0 LegendMM LegendMM   98.64     LegendNANA
17:00 4.2 1.5 83 0.0 LegendMM LegendMM   98.51     LegendNANA
18:00 4.4 1.2 79 0.0 LegendMM LegendMM   98.50     LegendNANA
19:00 3.8 1.5 85 0.2 LegendMM LegendMM   98.50     LegendNANA
20:00 3.4 2.1 91 0.2 LegendMM LegendMM   98.44     LegendNANA
21:00 3.1 1.7 90 0.0 LegendMM LegendMM   98.33     LegendNANA
22:00 3.3 2.0 91 0.0 LegendMM LegendMM   98.30     LegendNANA
23:00 3.7 2.5 92 0.0 LegendMM LegendMM   98.22     LegendNANA

Notes on Data Quality.

Legend

  • E = Estimated
  • M = Missing
  • NA = Not Available*
  • [empty] = Indicates an unobserved value
Date modified: